DAL2995 UBBB-OKKK

Flight info

Callsign DAL2995
Flight time N/A
Altitude 31000
Route GILAB T444 XERBO N25 LALDA G670 RST R660 DEDLA Z725 PAXID N72 SAV L124 EGVEL B417 MAH DCT SIDAD
Aircraft MD88/M-SDFGIRWY/C

Departure

Time 2026-04-29 22:18
Airport Heydar Aliyev International Airport (UBBB)

Arrival

Time N/A
Airport Kuwait International Airport (OKKK)
Time Latitude Longitude Altitude Speed Heading
2026-04-29 21:45 40.46391 50.04850 1 ft 0 kts 282°
2026-04-29 22:13 40.46392 50.04847 1 ft 2 kts 285°
2026-04-29 22:13 40.46392 50.04812 1 ft 5 kts 240°
2026-04-29 22:14 40.46347 50.04757 2 ft 12 kts 222°
2026-04-29 22:14 40.46269 50.04663 3 ft 17 kts 225°
2026-04-29 22:14 40.46233 50.04551 4 ft 12 kts 240°
2026-04-29 22:14 40.46194 50.04433 5 ft 16 kts 250°
2026-04-29 22:15 40.46148 50.04280 6 ft 17 kts 231°
2026-04-29 22:15 40.46058 50.04265 6 ft 13 kts 174°
2026-04-29 22:15 40.45969 50.04265 6 ft 12 kts 181°
2026-04-29 22:15 40.45879 50.04262 8 ft 14 kts 181°
2026-04-29 22:16 40.45783 50.04252 9 ft 11 kts 198°
2026-04-29 22:16 40.45728 50.04187 9 ft 12 kts 225°
2026-04-29 22:16 40.45717 50.04093 10 ft 11 kts 313°
2026-04-29 22:16 40.45747 50.04078 10 ft 0 kts 349°
2026-04-29 22:17 40.45800 50.04064 10 ft 29 kts 347°
2026-04-29 22:17 40.46230 50.03927 5 ft 96 kts 347°
2026-04-29 22:17 40.47062 50.03673 2 ft 148 kts 346°
2026-04-29 22:17 40.48189 50.03307 131 ft 180 kts 344°
2026-04-29 22:18 40.49443 50.02900 736 ft 189 kts 343°
2026-04-29 22:18 40.50714 50.02442 1613 ft 188 kts 341°
2026-04-29 22:18 40.51866 50.01982 2502 ft 182 kts 340°
2026-04-29 22:18 40.53096 50.01479 3165 ft 191 kts 341°
2026-04-29 22:19 40.54438 50.00920 3477 ft 213 kts 339°
2026-04-29 22:19 40.55860 50.00255 4095 ft 217 kts 337°
2026-04-29 22:19 40.57253 49.99606 5071 ft 205 kts 337°
2026-04-29 22:19 40.58592 49.98974 5769 ft 208 kts 337°
2026-04-29 22:20 40.59991 49.98198 5963 ft 230 kts 324°
2026-04-29 22:20 40.61052 49.96564 6265 ft 241 kts 290°
2026-04-29 22:20 40.61326 49.94446 7114 ft 232 kts 266°
2026-04-29 22:20 40.61036 49.92357 7734 ft 237 kts 262°
2026-04-29 22:21 40.60871 49.90163 8219 ft 241 kts 259°
2026-04-29 22:21 40.60019 49.88236 8506 ft 263 kts 217°
2026-04-29 22:21 40.58289 49.87243 8801 ft 273 kts 197°
2026-04-29 22:21 40.56572 49.86755 10274 ft 231 kts 195°
2026-04-29 22:22 40.55078 49.86342 11211 ft 218 kts 196°
2026-04-29 22:22 40.53483 49.85866 10838 ft 260 kts 190°
2026-04-29 22:22 40.51414 49.85903 9624 ft 336 kts 169°
2026-04-29 22:22 40.49134 49.86870 9477 ft 338 kts 166°
2026-04-29 22:23 40.46875 49.87433 8509 ft 341 kts 182°
2026-04-29 22:23 40.44547 49.87144 8347 ft 321 kts 193°
2026-04-29 22:23 40.42432 49.86517 8096 ft 310 kts 199°
2026-04-29 22:23 40.40366 49.85646 7875 ft 296 kts 203°
2026-04-29 22:24 40.38515 49.84715 7882 ft 282 kts 206°
2026-04-29 22:24 40.36763 49.83717 7860 ft 271 kts 208°
2026-04-29 22:24 40.35027 49.82705 7911 ft 276 kts 207°
2026-04-29 22:24 40.33275 49.81665 7960 ft 277 kts 207°
2026-04-29 22:25 40.31524 49.80556 7985 ft 281 kts 208°
2026-04-29 22:25 40.29771 49.79454 7992 ft 280 kts 207°
2026-04-29 22:25 40.28010 49.78369 7998 ft 279 kts 207°
2026-04-29 22:25 40.26246 49.77302 7999 ft 278 kts 205°
2026-04-29 22:26 40.24486 49.76249 8014 ft 278 kts 208°
2026-04-29 22:26 40.22738 49.75175 8007 ft 278 kts 207°
2026-04-29 22:26 40.20980 49.74104 8015 ft 279 kts 209°
2026-04-29 22:26 40.19215 49.73083 8014 ft 276 kts 207°
2026-04-29 22:27 40.17460 49.72043 8015 ft 279 kts 208°
2026-04-29 22:27 40.15701 49.70974 8023 ft 278 kts 208°
2026-04-29 22:27 40.13948 49.69914 8018 ft 279 kts 207°
2026-04-29 22:27 40.12190 49.68843 8022 ft 279 kts 207°
2026-04-29 22:28 40.10420 49.67768 8020 ft 282 kts 207°
2026-04-29 22:28 40.08609 49.66673 8483 ft 287 kts 207°
2026-04-29 22:28 40.06809 49.65594 9267 ft 284 kts 207°
2026-04-29 22:28 40.05048 49.64543 9917 ft 286 kts 207°
2026-04-29 22:29 40.03843 49.63824 10225 ft 291 kts 207°
2026-04-29 22:29 40.01284 49.62296 10446 ft 314 kts 207°
2026-04-29 22:29 39.99254 49.61066 10613 ft 330 kts 207°
2026-04-29 22:29 39.97122 49.59787 10788 ft 344 kts 207°
2026-04-29 22:30 39.94899 49.58456 10963 ft 358 kts 207°
2026-04-29 22:30 39.92614 49.57090 11422 ft 362 kts 206°
2026-04-29 22:30 39.90321 49.55723 12034 ft 363 kts 206°
2026-04-29 22:30 39.88022 49.54354 12637 ft 364 kts 206°
2026-04-29 22:31 39.85711 49.52978 13188 ft 367 kts 206°
2026-04-29 22:31 39.83376 49.51590 13745 ft 370 kts 206°
2026-04-29 22:31 39.81025 49.50197 14250 ft 373 kts 206°
2026-04-29 22:31 39.78656 49.48792 14725 ft 375 kts 206°
2026-04-29 22:32 39.76276 49.47381 15230 ft 377 kts 206°
2026-04-29 22:32 39.73888 49.45962 15776 ft 378 kts 206°
2026-04-29 22:32 39.71486 49.44535 16248 ft 381 kts 206°
2026-04-29 22:32 39.69095 49.43116 16687 ft 385 kts 206°
2026-04-29 22:33 39.66655 49.41668 17164 ft 387 kts 206°
2026-04-29 22:33 39.64195 49.40209 17666 ft 389 kts 206°
2026-04-29 22:33 39.61720 49.38742 18141 ft 392 kts 206°
2026-04-29 22:33 39.59226 49.37267 18536 ft 397 kts 206°
2026-04-29 22:34 39.56698 49.35772 18928 ft 400 kts 206°
2026-04-29 22:34 39.54165 49.34276 19397 ft 401 kts 206°
2026-04-29 22:34 39.51620 49.32774 19819 ft 403 kts 206°
2026-04-29 22:34 39.49014 49.31397 20203 ft 408 kts 196°
2026-04-29 22:35 39.46186 49.31034 20636 ft 413 kts 176°
2026-04-29 22:35 39.43356 49.31773 21062 ft 418 kts 166°
2026-04-29 22:35 39.40557 49.32870 21417 ft 423 kts 164°
2026-04-29 22:35 39.37741 49.34036 21756 ft 427 kts 164°
2026-04-29 22:36 39.34907 49.35217 22164 ft 430 kts 164°
2026-04-29 22:36 39.32054 49.36388 22613 ft 431 kts 165°
2026-04-29 22:36 39.29180 49.37529 22997 ft 433 kts 165°
2026-04-29 22:36 39.26320 49.38627 23361 ft 436 kts 165°
2026-04-29 22:37 39.23394 49.39724 23727 ft 439 kts 166°
2026-04-29 22:37 39.20454 49.40813 24072 ft 441 kts 166°
2026-04-29 22:37 39.17500 49.41903 24432 ft 442 kts 166°
2026-04-29 22:37 39.14541 49.42998 24745 ft 444 kts 166°
2026-04-29 22:38 39.11562 49.44100 25079 ft 445 kts 166°
2026-04-29 22:38 39.08584 49.45207 25432 ft 447 kts 165°
2026-04-29 22:38 39.05586 49.46324 25697 ft 450 kts 165°
2026-04-29 22:38 39.02569 49.47447 25998 ft 452 kts 165°
2026-04-29 22:39 38.99543 49.48573 26354 ft 453 kts 165°
2026-04-29 22:39 38.96514 49.49701 26716 ft 453 kts 166°
2026-04-29 22:39 38.93491 49.50828 27207 ft 450 kts 166°
2026-04-29 22:39 38.90495 49.51944 27703 ft 447 kts 166°
2026-04-29 22:40 38.88519 49.52679 28013 ft 446 kts 166°
2026-04-29 22:40 38.84539 49.54157 28542 ft 445 kts 166°
2026-04-29 22:40 38.81568 49.55259 28918 ft 444 kts 166°
2026-04-29 22:40 38.78600 49.56359 29278 ft 443 kts 166°
2026-04-29 22:41 38.75649 49.57456 29715 ft 441 kts 166°
2026-04-29 22:41 38.73698 49.58179 29983 ft 440 kts 166°
2026-04-29 22:41 38.70765 49.59264 30317 ft 439 kts 166°
2026-04-29 22:41 38.67830 49.60347 30574 ft 439 kts 167°
2026-04-29 22:42 38.64897 49.61427 30814 ft 439 kts 167°
2026-04-29 22:42 38.58045 49.63945 30990 ft 440 kts 167°
2026-04-29 22:43 38.53149 49.65746 31020 ft 435 kts 167°
2026-04-29 22:43 38.47349 49.67878 31034 ft 434 kts 167°
2026-04-29 22:44 38.41529 49.70020 31033 ft 435 kts 167°
2026-04-29 22:44 38.35729 49.72147 31033 ft 433 kts 167°
2026-04-29 22:45 38.29952 49.74261 31032 ft 432 kts 167°
2026-04-29 22:45 38.27032 49.75116 31030 ft 428 kts 179°
2026-04-29 22:45 38.23126 49.74933 31034 ft 423 kts 189°
2026-04-29 22:46 38.18268 49.74141 31032 ft 424 kts 190°
2026-04-29 22:46 38.12424 49.73148 31033 ft 424 kts 190°
2026-04-29 22:47 38.06559 49.72233 31031 ft 425 kts 189°
2026-04-29 22:47 38.00690 49.71386 31034 ft 425 kts 189°
2026-04-29 22:48 37.94807 49.70559 31034 ft 425 kts 189°
2026-04-29 22:48 37.88928 49.69725 31026 ft 425 kts 189°
2026-04-29 22:49 37.83054 49.68884 31031 ft 423 kts 189°
2026-04-29 22:49 37.77206 49.68028 31033 ft 423 kts 189°
2026-04-29 22:50 37.71340 49.67176 31035 ft 425 kts 189°
2026-04-29 22:50 37.65469 49.66330 31033 ft 424 kts 189°
2026-04-29 22:51 37.59619 49.65482 31040 ft 422 kts 189°
2026-04-29 22:51 37.50855 49.64209 31036 ft 423 kts 189°
2026-04-29 22:52 37.44999 49.63361 31036 ft 424 kts 189°
2026-04-29 22:52 37.39137 49.62514 31035 ft 425 kts 189°
2026-04-29 22:53 37.33232 49.62317 31046 ft 433 kts 169°
2026-04-29 22:53 37.30422 49.63732 31051 ft 442 kts 151°
2026-04-29 22:53 37.27928 49.66021 31046 ft 447 kts 144°
2026-04-29 22:54 37.23191 49.71112 31033 ft 448 kts 142°
2026-04-29 22:54 37.18511 49.76164 31038 ft 446 kts 143°
2026-04-29 22:55 37.13752 49.81111 31038 ft 443 kts 145°
2026-04-29 22:55 37.08952 49.85977 31038 ft 444 kts 145°
2026-04-29 22:56 37.04136 49.90851 31024 ft 446 kts 145°
2026-04-29 22:56 36.99393 49.95685 31028 ft 444 kts 145°
2026-04-29 22:57 36.94602 50.00524 31021 ft 441 kts 149°
2026-04-29 22:57 36.91962 50.02396 31023 ft 435 kts 160°
2026-04-29 22:57 36.89169 50.03834 31011 ft 434 kts 163°
2026-04-29 22:58 36.83537 50.06506 31000 ft 432 kts 164°
2026-04-29 22:58 36.77941 50.09195 30990 ft 430 kts 163°
2026-04-29 22:59 36.72370 50.11973 30977 ft 431 kts 163°
2026-04-29 22:59 36.66859 50.14756 30965 ft 430 kts 163°
2026-04-29 23:00 36.61325 50.17540 30966 ft 429 kts 163°
2026-04-29 23:00 36.55794 50.20311 30946 ft 428 kts 163°
2026-04-29 23:01 36.50282 50.23064 30950 ft 426 kts 163°
2026-04-29 23:01 36.44776 50.25794 30945 ft 427 kts 164°
2026-04-29 23:02 36.39262 50.28536 30933 ft 427 kts 163°
2026-04-29 23:02 36.33746 50.31272 30942 ft 427 kts 164°
2026-04-29 23:03 36.28181 50.33818 30944 ft 420 kts 176°
2026-04-29 23:03 36.25336 50.34150 31275 ft 408 kts 183°
2026-04-29 23:03 36.22489 50.34222 30881 ft 420 kts 184°
2026-04-29 23:04 36.19598 50.34234 31039 ft 414 kts 184°
2026-04-29 23:04 36.16666 50.34242 30963 ft 414 kts 184°
2026-04-29 23:04 36.10969 50.34302 30928 ft 411 kts 184°
2026-04-29 23:05 36.05246 50.34441 30918 ft 413 kts 183°
2026-04-29 23:05 35.99471 50.34610 30917 ft 416 kts 183°